Home > Weather > Francistown > Past weeks

Flag for Botswana Past Weather in Francistown, Botswana — Yesterday and Last 2 Weeks

Now
57 °F

Clear.


Feels Like: 57 °F
Forecast: 49 / 67 °F
Wind: No wind

Location: Selebi Phikwe

Current Time: Jul 2, 2016 at 5:55:06 AM

Latest Report: Jul 2, 2016 at 5:00 AM


Visibility: 10 mi

Pressure: 30.18 "Hg (26.83 "Hg at 989m altitude)

Humidity: 59%

Dew Point: 43 °F

Location of FrancistownLocation

Past Weather in Francistown — Graph

°F

Francistown Temperature Yesterday

Maximum temperature yesterday: 81 °F (at 3:00 PM)
Minimum temperature yesterday: 46 °F (at 5:00 AM)
Average temperature yesterday: 67 °F

High & Low Weather Summary for the Past Weeks

 TemperatureHumidityPressure
High82 °F (Jun 19, 1:00 PM)100% (Jun 19, 5:00 AM)30.54 "Hg (Jun 19, 5:00 AM)
Low39 °F (Jun 26, 6:00 AM)26% (Jun 20, 1:00 PM)30.12 "Hg (Jul 1, 3:00 PM)
Average65 °F59%30.29 "Hg
* Reported Jun 16 8:00 PM — Jul 1 8:00 PM, Francistown, Weather by CustomWeather, © 2016

Note: Actual official high and low records may vary slightly from our data, if they occured in-between our weather recording intervals... More about our weather records

Advertising

Francistown Weather History for the Previous 24 Hours

Scroll right to see more
 ConditionsComfort  
Time TempWeatherWind HumidityBarometerVisibility
8:00 PM
Fri, Jul 1
61 °FClear.No wind52%30.18 "Hg10 mi
7:00 PM64 °FClear.No wind52%30.15 "Hg10 mi
6:00 PM75 °FClear.No wind41%30.15 "Hg10 mi
5:00 PM81 °FClear.5 mph30%30.12 "Hg10 mi
4:00 PM81 °FSunny.8 mph30%30.12 "Hg10 mi
3:00 PM81 °FSunny.6 mph34%30.12 "Hg10 mi
2:00 PM79 °FSunny.6 mph39%30.15 "Hg10 mi
1:00 PM77 °FSunny.6 mph42%30.18 "Hg10 mi
12:00 PM75 °FSunny.10 mph47%30.21 "Hg10 mi
11:00 AM72 °FSunny.2 mph53%30.24 "Hg10 mi
10:00 AM68 °FSunny.No wind56%30.27 "Hg10 mi
9:00 AM63 °FSunny.No wind64%30.27 "Hg10 mi
8:00 AM54 °FSunny.No wind77%30.27 "Hg10 mi
7:00 AM46 °FSunny.No wind82%30.24 "Hg10 mi
6:00 AM46 °FSunny.No wind87%30.24 "Hg10 mi
5:00 AM46 °FClear.No wind82%30.21 "Hg10 mi
Weather by CustomWeather, © 2016

See weather overviewHow to use our weather pages